Theta_e
313 311 313 312 312 300 306 307 303 305 312 309 305 307 309 308 305 302 311 309 312 318 318 320 322 323 323 324 324 325 327 327 331 330 331 333 334 334 335 338 341 344 343 348 349 348 350 351 351 351 353 357 359 360 363 366 368 369 368 367 367 368 368
313 315 314 313 312 311 308 303 306 312 314 312 307 300 304 302 299 302 307 305 307 308 305 319 319 320 321 322 323 324 326 328 328 330 331 332 333 335 339 341 343 344 345 349 348 347 346 349 350 353 355 357 360 361 363 365 367 368 369 368 367 368 368
313 314 313 310 312 313 307 306 313 305 300 300 306 305 298 298 298 301 306 307 307 309 310 314 316 317 319 322 324 323 323 325 326 331 332 336 338 336 339 340 343 344 346 350 349 346 345 348 353 355 357 357 359 361 363 364 365 368 369 367 368 369 369
312 311 310 302 305 311 312 311 308 312 308 305 302 304 306 305 299 299 301 305 303 312 312 315 316 319 322 321 322 322 322 324 325 334 334 337 336 336 337 338 341 344 344 345 347 346 344 346 352 354 354 354 354 357 362 363 366 369 370 370 369 369 369
312 304 307 304 306 303 304 305 303 306 307 311 309 308 305 303 301 300 301 300 305 312 317 317 319 322 323 322 323 326 325 325 326 328 330 334 336 337 336 337 337 341 344 345 347 347 346 347 352 353 353 352 352 354 357 361 365 366 368 369 369 368 368
306 307 311 310 309 309 306 304 303 304 304 303 299 299 308 306 303 298 300 299 309 314 318 322 323 324 321 324 325 325 325 324 327 334 327 333 334 339 341 341 337 338 344 347 347 349 349 346 347 350 353 353 352 351 355 358 362 365 366 368 369 368 369
307 310 313 314 314 312 310 308 305 307 306 307 303 296 302 306 306 307 306 302 305 320 327 330 325 323 323 325 324 324 324 326 325 327 333 334 336 338 338 338 338 341 345 348 350 350 351 349 350 350 351 351 351 351 353 357 361 364 367 368 369 369 369
311 313 315 315 314 312 309 309 309 306 304 305 305 305 306 303 305 302 302 301 306 318 344 336 323 333 323 326 326 327 324 325 326 327 328 335 339 339 336 337 335 340 342 346 352 353 352 352 353 353 354 354 353 353 354 356 360 364 366 367 368 370 369
304 307 309 309 312 311 307 306 308 308 308 307 307 308 311 303 304 305 302 297 304 315 339 339 329 322 321 322 323 326 325 328 326 330 342 337 343 342 338 340 342 345 343 345 353 355 353 353 354 356 357 357 356 356 355 356 359 363 365 365 368 368 367
295 295 296 298 302 305 307 308 308 308 307 306 304 300 305 299 310 309 303 303 311 317 325 324 323 324 333 325 323 323 326 343 336 337 340 345 346 345 347 349 347 345 346 352 357 358 357 354 355 358 359 359 358 357 356 356 359 361 361 361 365 366 367
302 304 309 310 310 307 303 305 306 307 308 308 307 305 302 299 306 305 309 310 313 313 316 318 319 322 321 321 327 329 328 327 334 352 352 344 349 347 349 351 351 352 356 359 357 359 359 356 355 358 358 357 356 357 356 355 357 358 361 360 363 368 368
308 310 309 311 310 306 307 306 305 307 307 307 305 302 300 310 305 299 311 319 310 311 315 321 320 320 325 325 328 325 337 341 339 344 360 353 352 353 354 354 355 354 357 364 361 360 361 359 357 357 358 356 356 356 354 353 354 355 357 358 362 367 367
308 309 311 311 310 309 309 308 307 306 306 306 305 306 306 309 302 300 313 321 315 314 314 317 323 328 337 323 324 326 328 328 334 353 350 348 348 352 351 355 355 355 357 366 366 362 362 362 359 359 358 357 357 357 354 353 352 353 356 358 360 365 367
308 309 309 310 309 309 309 308 307 307 307 306 306 306 307 306 309 311 310 318 313 313 314 316 319 326 324 325 328 326 327 323 330 337 346 346 347 348 349 354 356 358 357 362 368 365 365 363 361 359 359 359 358 357 355 354 353 353 358 359 360 364 367
307 309 310 309 309 309 308 308 309 309 308 307 307 306 307 308 307 308 307 310 311 315 322 320 321 323 324 328 323 322 326 326 324 326 325 333 329 340 347 356 356 357 357 359 365 365 364 364 362 360 360 361 360 357 356 353 354 355 359 360 361 364 367
305 309 309 309 309 309 308 308 308 308 308 306 307 306 308 306 308 310 307 308 308 313 319 318 323 323 323 321 323 326 333 327 327 327 325 326 338 336 340 350 353 355 355 356 361 363 363 363 364 362 363 363 362 357 357 354 353 355 360 361 361 364 369
304 308 309 309 309 307 303 305 307 309 310 310 310 311 311 310 309 305 305 306 313 317 320 317 318 317 321 322 321 323 325 335 333 329 328 327 331 339 351 353 354 354 353 355 360 362 362 363 364 364 365 363 362 360 359 359 358 355 361 362 363 366 371
303 307 308 309 304 297 299 310 313 312 309 310 308 308 310 311 311 309 311 311 319 319 316 316 318 319 320 327 330 331 338 341 340 336 335 329 329 329 333 355 355 357 357 356 360 363 364 364 362 363 365 364 364 363 364 364 361 358 363 365 365 368 372
301 306 307 301 296 298 312 315 315 314 313 312 311 311 312 313 314 314 312 313 314 319 318 319 320 321 323 325 327 323 323 328 327 329 331 338 342 343 341 346 356 360 362 362 364 367 364 362 363 363 364 366 365 364 365 364 363 362 366 367 367 370 372
306 304 303 295 296 309 312 314 316 317 315 313 311 309 311 313 314 316 320 317 316 318 317 316 321 325 320 319 324 337 327 324 326 323 323 325 328 330 334 339 345 364 363 363 364 367 365 365 361 361 363 362 360 361 364 364 363 366 369 368 368 371 371
301 302 302 302 311 308 310 311 313 313 311 311 309 304 309 315 317 316 322 319 319 322 319 317 318 320 318 319 320 320 320 323 324 323 323 323 327 327 331 333 341 370 366 366 365 369 367 364 362 362 363 362 362 360 359 360 363 367 369 368 368 371 370
307 302 301 302 302 299 306 319 318 320 320 319 319 316 312 319 326 324 321 320 325 325 324 327 327 328 325 313 315 321 320 321 322 323 323 323 325 328 330 333 334 357 368 367 368 368 366 364 363 364 364 364 364 362 360 361 361 364 367 368 371 371 370
305 303 300 300 299 305 318 317 318 320 321 319 319 313 307 324 329 328 327 325 326 323 326 328 327 323 317 317 318 322 322 322 322 322 323 323 324 326 327 329 331 357 367 366 368 367 366 363 364 368 366 364 362 362 362 360 359 362 367 370 371 370 369
307 305 301 301 305 309 315 318 318 319 321 319 315 302 303 328 329 328 330 325 325 330 331 330 328 325 317 316 324 324 322 322 324 327 332 334 328 328 334 336 365 367 368 368 366 364 364 365 366 369 366 365 361 361 362 362 362 365 368 370 371 369 368
304 304 303 306 308 319 320 318 320 320 320 317 305 298 310 326 327 327 329 328 328 332 332 332 327 330 332 332 331 326 325 324 323 327 339 341 339 336 331 333 361 370 368 367 363 362 364 366 366 366 365 364 362 363 365 363 364 367 370 371 370 368 367
303 304 302 305 308 318 321 321 320 321 315 304 304 320 327 327 325 328 327 328 330 331 332 333 334 334 335 333 331 328 325 323 327 333 334 340 341 340 335 352 362 364 361 365 365 361 367 367 366 367 366 364 364 365 365 365 367 370 371 370 368 366 365
305 305 302 299 294 317 321 319 317 320 311 314 323 325 327 328 328 329 330 330 332 334 334 335 335 334 334 336 336 333 330 330 336 340 345 353 347 352 362 361 362 358 359 360 358 359 365 367 367 367 367 364 364 364 365 367 369 370 368 367 366 364 363
300 300 298 298 308 316 320 317 312 320 323 326 329 325 324 326 325 327 327 329 329 328 328 329 334 336 336 335 335 336 336 334 336 346 351 351 354 356 354 356 357 355 359 359 359 363 363 366 367 368 367 363 363 363 365 368 368 366 366 366 364 362 359
305 304 307 317 322 321 321 322 324 326 328 328 326 326 323 323 325 329 330 329 329 328 330 330 329 334 337 337 335 335 341 331 338 347 352 352 349 351 355 357 362 361 360 362 362 363 366 368 368 368 367 363 362 363 365 366 364 364 363 362 361 359 358
320 320 321 322 322 321 321 323 324 323 324 325 326 326 325 325 326 329 332 333 335 336 337 336 338 337 337 338 339 341 343 343 344 344 344 341 343 348 354 360 360 360 364 363 362 363 365 368 367 366 367 365 361 363 365 363 364 363 362 360 359 358 357
311 305 322 320 320 322 321 320 322 324 324 324 327 328 328 328 330 332 335 335 334 333 334 336 334 332 335 333 334 339 340 338 340 343 344 344 343 338 333 335 348 359 360 357 360 361 361 364 365 365 364 364 364 364 364 363 363 363 360 358 356 357 356
312 314 320 321 322 322 323 321 322 322 325 327 328 330 331 331 331 330 329 329 327 330 332 333 333 333 333 333 332 333 333 334 336 340 342 342 340 339 340 341 341 343 345 349 352 356 353 357 359 362 362 362 362 362 361 360 360 360 357 357 354 353 352
316 319 320 322 322 321 321 322 323 324 326 326 326 327 327 327 326 326 326 326 324 325 325 329 332 332 333 335 334 332 331 332 333 336 339 338 338 339 339 340 341 343 345 345 345 346 353 355 356 356 356 356 356 356 356 357 358 354 352 351 352 351 350
311 312 315 318 313 313 319 321 322 324 326 326 324 324 323 323 323 324 323 323 324 324 324 324 326 328 333 335 335 333 332 331 331 336 338 339 338 337 339 340 342 343 344 344 347 348 351 352 354 354 354 354 355 356 356 355 354 352 351 349 349 347 347
308 315 320 323 321 319 321 322 324 325 325 324 322 321 321 321 322 321 320 319 321 321 322 323 324 325 327 331 334 333 333 333 335 337 334 334 335 336 337 339 341 341 345 348 349 348 349 350 350 350 351 351 354 354 355 355 353 353 353 349 347 346 345
317 321 322 324 320 317 318 321 323 324 326 324 321 321 321 321 320 320 318 318 318 318 319 320 321 323 324 325 327 329 334 335 334 335 337 336 338 345 344 346 347 348 348 347 348 348 350 350 351 352 350 352 355 354 356 355 355 356 354 351 347 345 344
317 322 322 324 320 319 320 321 321 322 323 322 322 323 323 321 320 321 319 318 317 317 316 316 319 319 320 322 323 323 325 328 332 335 335 336 339 340 341 345 348 348 348 349 349 349 350 350 350 350 351 352 354 352 354 354 354 354 354 354 347 345 345
Wind_Speed
18 18 17 19 17 14 12 16 19 18 13 16 13 14 15 15 13 13 9 12 14 7 12 15 13 14 18 16 15 15 14 16 16 19 18 18 16 16 16 16 15 16 16 16 17 17 16 17 18 19 18 17 18 17 18 19 18 17 17 17 16 16 14
24 17 17 18 21 18 12 16 15 14 17 17 13 12 9 12 13 11 12 14 11 13 10 13 15 15 15 18 16 17 16 16 12 14 17 17 16 15 16 16 15 16 17 18 20 19 20 20 21 20 19 18 16 16 18 19 18 19 18 17 17 16 16
20 21 18 19 21 24 22 14 13 16 15 20 14 10 15 15 15 11 12 16 16 16 10 11 16 15 12 14 17 17 16 16 16 17 22 18 16 15 14 14 13 15 16 17 19 21 23 21 19 19 19 18 16 16 17 20 20 20 19 17 16 15 16
17 19 16 17 17 22 26 23 18 17 13 13 14 12 8 10 14 12 14 17 13 12 11 15 16 18 16 14 14 17 20 17 15 16 21 19 18 15 15 14 14 16 20 22 22 23 23 21 19 20 23 21 24 21 18 18 19 18 18 18 17 17 17
16 17 16 19 17 17 18 19 19 14 12 10 12 12 14 12 11 12 11 13 11 10 10 11 14 15 17 16 13 10 12 15 16 15 21 19 16 14 15 15 15 17 18 20 20 21 20 20 17 20 22 24 23 21 21 22 21 22 22 20 18 17 15
16 16 17 18 18 16 15 17 18 17 14 16 17 17 15 16 12 7 10 13 8 10 11 8 8 12 15 13 13 13 16 18 14 6 18 18 16 15 14 14 16 16 14 16 19 17 16 18 22 24 23 22 23 23 22 22 22 22 23 21 18 16 15
14 19 18 21 19 18 18 17 18 20 18 13 13 11 11 13 16 17 14 12 11 7 5 4 7 12 14 15 16 16 16 17 18 14 12 18 19 17 16 15 13 11 7 9 14 17 19 20 19 21 21 22 23 24 23 22 23 23 23 22 18 15 15
16 15 16 17 21 20 19 18 18 19 21 20 14 12 12 13 15 17 14 14 10 8 2 3 3 7 13 11 13 14 17 17 19 17 11 20 16 15 16 13 15 14 16 15 13 15 17 17 16 20 19 19 20 21 22 22 24 24 23 21 19 16 16
10 12 16 16 17 18 14 14 17 20 22 26 23 16 10 15 17 17 12 14 11 10 1 2 3 9 16 13 11 11 12 9 14 7 13 16 11 12 14 15 15 14 14 14 15 16 17 16 15 16 17 18 19 19 21 22 22 23 22 18 18 18 18
15 15 15 17 16 17 14 15 18 21 24 27 21 20 12 9 8 16 12 12 11 10 8 7 9 5 3 7 13 15 12 3 3 11 15 13 15 13 12 13 15 16 16 13 13 14 14 16 16 15 17 17 18 18 20 21 21 21 21 19 20 19 20
12 13 8 10 13 13 16 20 22 21 22 23 22 14 16 15 7 11 11 12 6 10 16 17 15 10 10 10 7 5 8 10 6 4 10 15 13 15 14 13 12 11 10 13 16 16 15 17 16 15 18 18 18 16 18 20 18 18 17 16 16 18 19
18 13 16 14 18 18 19 21 21 22 22 22 24 19 18 11 11 11 9 9 14 14 11 8 15 16 11 10 7 9 3 3 2 3 10 11 11 11 10 10 11 12 11 10 13 15 15 15 16 16 17 18 17 16 17 18 18 19 16 16 16 17 17
25 23 18 17 15 16 16 18 19 21 22 23 23 19 21 15 14 15 9 7 10 12 18 16 9 7 3 7 10 10 6 4 7 2 7 12 15 14 13 12 11 12 11 9 11 13 14 15 16 16 16 16 15 14 15 16 17 18 15 15 15 16 17
21 24 26 22 20 17 19 17 19 20 20 23 23 20 22 25 17 14 14 9 12 16 20 19 16 8 8 8 9 11 11 13 10 5 12 12 11 11 11 10 11 11 11 9 10 12 12 14 15 15 14 15 16 16 16 16 15 15 14 15 15 16 17
18 23 24 24 23 20 20 19 19 20 22 21 21 22 23 22 23 23 17 16 16 12 9 14 16 14 11 6 10 14 13 15 17 15 14 13 14 14 9 7 8 10 11 11 11 12 13 14 15 15 14 14 14 17 16 18 16 15 15 15 15 15 16
13 18 23 23 22 22 21 19 20 23 25 22 20 16 17 18 12 12 21 16 13 11 12 14 11 12 14 16 13 10 6 11 14 13 15 15 10 17 16 15 14 13 13 14 14 14 15 15 14 14 13 13 13 16 16 17 16 15 14 16 16 15 14
13 14 17 18 20 19 20 22 22 21 20 16 13 18 21 19 18 16 12 12 9 9 9 13 12 15 13 14 14 13 12 8 8 11 13 12 9 6 14 16 15 15 16 15 15 16 15 14 14 16 15 14 15 15 14 14 13 14 14 15 15 14 13
12 15 14 13 13 17 16 13 18 20 20 20 23 19 18 20 19 13 14 12 7 10 11 12 9 12 12 8 8 8 4 4 5 6 7 13 13 12 8 14 17 15 14 12 14 16 16 17 20 17 15 15 14 13 11 11 13 13 12 13 14 14 13
11 11 14 15 19 17 11 11 13 17 21 22 23 20 18 17 16 19 21 19 17 11 7 8 11 13 14 12 7 12 16 11 12 12 10 8 5 5 6 5 13 14 14 14 15 15 17 18 15 14 13 12 12 13 12 13 13 11 11 13 13 13 13
9 12 13 16 17 10 13 12 9 13 17 21 21 22 22 16 6 13 13 11 13 17 16 15 11 9 15 17 12 5 10 14 14 18 17 16 13 12 9 8 6 16 15 15 16 16 15 14 16 17 16 17 17 15 14 13 12 11 10 12 13 13 13
12 12 13 15 6 10 14 14 10 9 15 15 14 13 12 10 6 8 7 10 14 14 7 15 17 15 15 11 11 16 19 15 18 20 18 18 16 16 14 13 10 13 16 16 16 14 14 16 17 17 17 17 16 17 18 15 13 12 11 13 13 13 13
13 12 13 12 13 14 9 4 3 4 9 4 7 6 5 4 5 8 7 9 13 10 11 13 12 11 6 14 12 16 22 22 20 18 18 19 19 17 14 12 14 11 16 16 15 17 17 16 17 16 17 17 15 16 16 16 16 13 13 13 12 12 13
13 15 13 11 13 8 4 3 0 7 5 4 4 3 6 7 11 11 8 6 7 9 10 11 10 8 8 7 10 11 15 15 16 18 21 23 23 21 18 16 19 15 15 16 16 17 16 17 16 16 17 18 18 15 15 18 17 13 13 13 12 12 12
8 10 11 12 9 5 6 4 3 5 4 9 1 6 7 7 9 10 7 6 6 8 9 10 8 6 7 8 10 11 9 11 16 14 12 12 15 16 12 13 6 13 15 16 16 16 16 16 17 17 18 17 17 15 15 15 15 14 13 13 12 11 11
11 10 10 7 7 1 11 9 6 4 2 3 5 8 2 6 8 9 8 7 8 7 9 7 7 5 6 9 13 17 15 13 17 14 4 7 6 10 14 11 13 8 10 13 15 17 15 15 15 16 16 15 14 13 13 13 14 14 14 13 13 13 12
12 11 12 7 7 6 6 6 9 7 6 4 7 3 3 4 8 8 9 10 11 10 9 7 7 9 12 13 13 16 20 20 16 8 6 4 13 13 16 13 15 11 12 12 13 14 11 14 15 15 15 14 14 14 13 13 14 14 14 13 12 11 11
11 10 8 10 9 5 14 12 8 6 8 3 4 4 7 10 10 12 14 14 14 15 13 13 12 13 13 13 14 15 15 15 7 11 11 2 5 10 6 12 13 15 12 13 15 13 13 13 14 13 14 15 14 14 14 14 13 14 14 14 13 12 12
12 13 12 7 5 7 10 10 6 8 6 4 5 6 5 9 8 9 9 10 13 16 16 17 17 15 13 11 11 12 14 15 6 4 4 2 4 10 4 6 9 11 11 10 11 11 12 12 12 13 15 16 15 15 15 14 14 15 14 14 13 13 12
11 8 8 1 2 9 8 6 12 10 8 8 8 7 8 6 8 8 8 9 9 9 12 15 18 17 14 14 14 12 16 11 2 7 14 12 4 4 6 7 7 7 9 10 11 12 10 12 11 13 14 16 16 16 14 14 15 15 15 14 13 12 11
13 14 8 5 5 8 10 11 9 8 9 10 9 10 7 7 7 8 8 9 11 12 11 9 10 12 14 15 15 16 15 14 13 13 12 16 22 15 2 5 8 9 8 11 12 12 12 13 12 12 13 15 16 15 14 14 14 14 14 13 12 12 12
5 4 9 11 8 1 7 8 9 9 10 9 10 11 10 10 9 10 11 10 13 14 15 14 11 12 14 14 14 13 13 14 12 10 11 12 13 17 20 25 19 1 11 12 12 13 14 13 13 13 15 13 14 13 13 13 13 13 13 13 12 11 11
2 8 6 11 15 14 10 9 10 11 12 13 11 10 12 14 14 14 15 15 16 16 16 14 12 12 13 14 14 12 12 11 12 10 8 11 14 13 11 8 11 13 10 7 8 10 9 8 11 13 14 15 15 14 14 15 14 12 11 11 11 11 11
9 9 11 11 15 17 16 13 9 10 11 13 16 16 15 14 15 15 17 18 17 17 17 16 14 12 13 12 12 15 13 11 10 11 8 10 12 9 9 6 4 2 6 8 8 9 10 8 10 13 15 15 16 16 14 14 12 12 11 11 11 11 9
4 6 4 7 4 7 9 12 13 13 12 13 14 15 16 16 15 14 16 17 17 18 18 18 17 15 12 14 14 13 8 8 11 11 5 9 12 10 7 5 6 1 6 12 10 11 11 10 11 13 15 14 14 14 13 13 12 12 12 11 11 11 9
3 3 4 5 10 11 9 10 11 13 12 14 16 15 15 14 15 16 17 16 17 18 18 18 18 17 16 13 11 12 11 7 9 8 5 9 7 7 8 10 8 6 5 9 11 11 10 9 11 12 12 13 12 13 11 11 12 11 11 10 9 10 11
5 5 3 1 7 9 9 10 11 11 11 12 15 15 14 13 14 16 17 17 15 14 16 18 18 18 18 16 15 12 8 8 4 1 2 6 7 10 10 9 8 9 10 10 11 10 8 9 10 10 13 13 11 12 11 10 10 8 8 7 9 9 9
3 6 10 6 12 12 10 11 11 12 12 12 11 12 11 11 12 13 14 14 14 15 14 15 15 17 18 19 18 17 16 14 11 10 9 8 11 12 13 14 13 10 11 10 11 11 11 11 12 12 11 11 10 10 9 9 8 7 6 4 7 9 10
Wind_Direction
217 209 202 209 222 227 202 207 217 222 214 226 235 260 247 242 250 245 229 224 223 205 183 214 224 220 213 207 210 210 199 206 188 184 179 183 187 190 192 192 189 189 196 197 190 188 183 184 183 190 189 186 185 181 180 181 183 183 184 182 182 185 186
213 205 205 209 213 240 238 212 214 220 225 230 235 233 227 248 249 231 239 247 239 225 221 177 211 221 223 203 199 206 205 202 202 173 173 180 187 189 188 191 190 190 197 192 187 189 192 187 189 188 188 187 185 183 181 179 182 185 185 184 185 185 186
196 198 207 209 216 222 239 240 186 218 194 217 219 234 221 224 227 239 229 231 241 239 220 179 204 201 208 198 198 211 211 207 198 165 171 181 191 188 183 191 186 189 200 192 186 193 195 192 188 187 186 185 185 184 183 183 185 186 186 186 186 186 187
185 188 198 219 202 214 229 243 245 206 232 215 219 216 242 233 244 228 233 240 233 224 237 191 196 202 190 191 201 209 218 214 202 168 172 174 182 181 183 187 191 195 202 201 193 192 196 192 186 187 188 189 191 188 182 184 186 186 187 188 185 188 188
191 196 194 212 206 199 208 225 231 235 208 223 239 222 217 225 237 240 238 232 231 245 244 221 196 193 191 188 194 199 238 238 210 182 168 171 172 173 178 185 189 195 199 202 198 195 197 195 186 189 192 193 193 191 188 186 185 188 190 190 189 190 186
201 213 194 206 211 207 215 217 227 230 213 193 214 225 208 217 229 228 235 243 241 230 232 243 211 177 180 184 204 194 212 234 244 188 172 161 165 173 184 181 187 194 187 190 198 193 195 196 194 194 193 192 192 192 190 189 189 190 192 192 191 188 185
218 212 203 192 209 218 220 214 219 221 235 231 207 226 211 218 225 233 242 258 235 234 260 239 211 179 180 194 201 211 202 222 224 232 176 157 169 179 181 176 186 182 184 201 198 190 193 198 194 193 192 193 192 192 190 189 188 191 193 193 189 185 185
254 210 203 193 197 214 225 221 220 214 222 229 235 212 219 231 222 221 220 230 243 230 214 277 279 159 179 195 205 207 206 203 219 211 192 168 165 180 172 170 178 179 188 194 196 189 192 197 192 189 192 192 192 191 191 189 191 190 193 192 187 182 186
243 242 190 211 202 202 219 225 214 218 220 226 234 244 203 223 229 232 214 231 217 230 212 135 271 203 198 197 210 210 225 212 215 193 130 163 167 167 171 175 177 178 187 195 193 188 188 192 192 186 188 192 192 191 191 191 192 192 194 190 186 184 187
207 213 205 195 202 204 202 228 235 221 223 219 221 230 233 240 200 225 232 225 226 205 193 198 221 220 179 202 233 215 223 282 211 128 146 145 158 166 173 170 170 180 187 189 185 183 186 188 190 187 187 190 194 192 193 192 191 193 194 190 187 185 187
217 221 240 196 201 202 211 205 222 234 224 225 225 229 236 235 230 231 232 260 259 207 197 195 205 217 197 196 246 243 174 195 221 140 142 154 158 164 172 173 172 175 181 184 185 183 184 188 190 187 188 189 194 192 193 195 192 192 189 190 184 184 188
246 229 228 229 190 215 213 213 208 223 235 221 221 222 227 230 242 233 226 228 249 256 257 234 203 211 211 181 184 248 267 8 316 250 135 161 157 160 162 159 166 175 187 180 179 185 184 187 190 189 189 190 191 191 193 195 193 192 189 188 185 182 188
227 244 249 238 222 213 226 214 213 211 223 240 229 220 230 228 231 239 228 204 229 258 257 250 219 211 155 147 167 200 227 261 252 249 142 160 160 154 161 167 176 181 183 176 180 182 187 185 189 191 189 190 190 192 195 195 195 193 186 184 185 182 186
214 225 240 249 249 218 210 226 218 215 217 223 240 239 223 229 238 236 231 239 221 227 249 255 261 266 227 203 176 178 186 204 241 214 171 172 161 150 165 178 181 184 182 182 177 182 182 185 187 190 189 190 192 193 193 191 194 192 182 181 185 183 185
230 215 222 237 246 256 250 219 239 239 214 214 221 232 242 234 234 239 235 234 244 234 234 240 248 260 263 244 231 222 202 195 214 233 234 207 182 156 171 173 193 189 190 188 180 181 185 186 187 191 191 192 193 196 194 192 193 191 181 179 184 183 184
238 233 215 216 229 243 252 254 229 239 252 211 200 229 231 245 249 227 228 231 232 228 230 239 229 231 241 252 250 244 235 213 210 221 219 227 180 170 184 187 187 191 192 188 187 184 185 187 189 187 187 189 191 200 196 197 193 190 183 180 182 182 178
239 240 226 218 218 225 232 235 239 237 231 263 251 211 212 230 243 251 241 238 236 233 222 225 231 243 237 234 242 244 241 229 239 221 218 221 231 207 182 178 182 188 190 191 187 186 185 187 185 190 186 183 192 198 200 196 192 192 184 180 178 175 172
227 235 243 238 235 230 228 224 233 243 250 218 222 247 232 209 205 227 247 260 245 218 238 253 245 234 246 243 221 251 259 275 264 265 244 215 214 228 207 178 184 181 190 188 189 185 185 186 190 189 184 188 190 192 197 193 196 196 180 175 173 170 166
231 225 229 233 234 236 239 241 231 234 241 252 255 248 243 240 233 229 219 219 241 262 257 248 258 274 281 276 246 223 247 251 255 259 249 242 235 224 232 214 175 179 181 186 183 184 187 188 184 181 183 184 181 187 191 193 198 196 178 165 168 164 161
227 227 216 227 230 241 245 245 236 239 247 243 242 244 251 257 359 360 343 292 229 210 216 235 247 233 243 258 265 258 247 250 252 251 250 249 246 248 247 241 210 172 181 182 182 186 183 176 181 182 183 184 188 190 189 191 193 194 173 162 163 158 157
229 218 227 238 279 254 241 250 235 225 226 227 237 252 249 261 306 277 33 337 348 356 287 220 214 220 228 237 235 236 240 244 250 253 257 256 255 252 247 246 229 179 181 181 181 174 172 177 177 181 181 183 186 187 190 190 187 182 166 162 162 157 156
216 226 227 230 228 232 208 85 125 27 26 0 61 50 350 358 30 27 9 350 348 337 338 3 2 348 290 229 226 217 225 231 239 246 252 255 260 259 249 242 241 201 184 179 167 169 171 178 179 178 177 179 179 184 184 182 180 175 166 160 156 151 159
199 218 227 223 229 217 53 239 167 56 18 290 82 281 269 58 37 43 5 359 336 323 351 350 5 342 320 307 240 207 213 219 227 237 236 236 239 244 246 235 234 203 172 165 160 168 170 176 176 173 175 177 179 180 180 180 179 171 163 154 153 157 155
218 225 223 226 226 208 186 141 70 64 61 48 343 239 230 34 15 26 22 0 348 5 359 358 333 327 305 297 320 307 252 250 259 250 244 233 223 229 234 260 189 165 156 149 158 164 169 177 174 168 171 175 181 178 176 172 170 162 156 150 146 149 151
215 219 234 251 232 31 151 181 144 163 207 309 231 227 56 2 7 9 9 350 8 0 348 337 301 312 302 310 301 291 298 282 265 269 341 337 283 238 233 229 126 138 148 149 160 168 173 172 171 169 170 170 171 169 167 171 160 154 147 146 151 154 150
215 221 235 216 249 197 194 165 164 182 132 186 219 72 252 353 4 356 346 349 353 353 334 323 304 308 309 310 310 302 290 285 309 311 238 30 352 291 236 151 153 145 158 154 164 167 163 172 166 162 163 163 160 159 162 161 150 142 141 142 142 143 145
212 215 226 239 236 136 214 169 199 144 221 103 49 352 30 23 29 17 15 8 358 349 335 325 318 310 313 319 317 298 292 297 16 355 326 79 100 25 71 142 141 150 150 162 168 169 165 165 158 157 156 153 152 153 155 147 143 138 135 137 135 136 136
218 218 223 228 238 183 163 166 206 96 73 74 52 18 46 33 24 26 19 14 1 353 337 326 317 311 301 297 300 303 285 273 287 273 307 328 96 125 155 109 144 150 145 160 164 158 163 153 153 147 148 148 148 150 144 140 135 132 134 133 137 141 144
219 234 230 134 89 122 171 125 97 100 98 78 67 67 62 36 45 28 21 10 1 339 325 324 313 303 312 316 313 320 322 280 350 19 357 348 277 187 143 146 140 144 154 162 144 145 145 139 136 138 141 142 140 138 136 131 131 135 135 138 141 142 138
77 59 49 81 120 158 134 113 119 125 102 72 65 60 59 44 42 34 28 24 12 7 18 3 331 354 0 8 8 5 359 12 26 27 26 19 5 0 329 164 156 156 147 130 136 129 124 119 122 126 132 132 130 126 128 130 136 135 134 133 133 133 135
128 51 9 47 24 19 121 154 115 94 82 90 85 78 69 61 58 54 44 42 41 34 27 25 21 8 8 6 4 7 18 12 8 33 40 35 43 46 27 351 330 114 132 137 127 123 120 123 120 118 115 115 119 125 127 129 129 127 126 128 131 133 134
126 121 109 67 59 58 77 97 85 75 72 74 82 95 96 80 69 60 54 51 44 37 38 31 27 16 13 8 357 2 8 16 355 346 58 71 64 53 40 28 343 338 357 23 75 98 100 108 124 117 117 123 126 124 126 130 129 122 119 121 120 120 120
99 67 58 76 70 58 57 70 96 95 84 75 67 64 70 74 73 66 60 56 50 43 40 32 28 21 10 11 10 12 5 351 359 348 7 60 76 67 60 43 345 318 84 92 99 108 118 117 111 117 121 121 122 123 126 127 119 110 106 106 110 112 110
158 106 86 350 70 76 54 60 81 88 92 90 84 72 67 64 65 67 68 58 50 49 42 35 33 29 16 11 17 18 350 341 325 317 16 57 62 56 39 3 290 54 108 111 104 97 96 106 113 111 110 111 114 113 118 118 118 115 119 124 128 131 136
122 125 92 70 84 88 78 58 67 81 88 85 81 77 76 72 67 65 63 58 50 46 42 35 33 35 34 22 31 27 346 340 285 281 28 61 72 120 163 195 200 197 123 93 98 98 100 103 104 101 103 107 106 111 115 121 127 130 132 134 144 147 148
35 53 91 84 94 98 95 74 65 58 61 70 78 82 80 75 73 70 65 59 54 49 45 39 31 32 31 25 29 43 44 48 17 355 181 136 187 131 117 105 96 80 68 70 74 79 84 86 85 90 95 97 101 107 112 117 124 132 146 152 154 158 149
157 124 106 92 104 105 93 82 72 68 60 62 62 53 49 64 70 70 74 71 61 56 50 42 34 26 27 26 28 26 20 14 8 7 29 62 55 57 70 71 67 64 65 65 67 65 68 72 75 82 89 92 95 100 111 121 135 139 158 150 106 94 103